SHIJIAN-6 02A (SJ-6 02A)

Last updated on Thu Sep 10 2026 00:03:32 GMT+0000 (Coordinated Universal Time)

1 29505U 06046A 26252.63328747 .00007796 00000+0 38931-3 0 9999 2 29505 97.6302 294.3525 0002652 172.7476 187.3797 15.17764789 85076
UTC large
Height (km)
Speed (km/s)
/
Latitude / Longitude
Inclination (degrees)
Orbital Period (minutes)
Azimuth
Elevation
Range (km)
Doppler Factor

Next 0 passes for location: London (51.5072 / 0.1276)

No passes found over London.
SHIJIAN-6 02A (SJ-6 02A)